Weather History for Destin, FL

Change the Weather History Date:

Wednesday, July 3, 2013

  Actual Average Record
Temperature  
Mean Temperature 78 °F -  
Max Temperature 82 °F 86 °F 93 °F (2014)
Min Temperature 73 °F 73 °F 73 °F (1998)
Cooling Degree Days 12    
Growing Degree Days 28 (Base 50)    
Moisture  
Dew Point 72 °F    
Average Humidity 89    
Maximum Humidity 94    
Minimum Humidity 72    
Precipitation  
Precipitation 2.48 in - - ()
Sea Level Pressure  
Sea Level Pressure 30.01 in    
Wind  
Wind Speed 8 mph (East)    
Max Wind Speed 18 mph    
Max Gust Speed 28 mph    
Visibility 6 miles    
Events Rain , Thunderstorm    
Averages and records for this station are not official NWS values.
T = Trace of Precipitation, MM = Missing Value Source: NWS Daily Summary

Daily Weather History Graph

Daily Weather History Graph

Search for Another Location

Airport:

Trip Planner

Search our weather history database for the weather conditions in past years. The results will help you decide how hot, cold, wet, or windy it might be!

Date:

Astronomy

Jul. 03, 2013 Rise Set
Actual Time 5:48 AM CDT 7:51 PM CDT
Civil Twilight 5:20 AM CDT 8:19 PM CDT
Nautical Twilight 4:47 AM CDT 8:52 PM CDT
Astronomical Twilight 4:11 AM CDT 9:28 PM CDT
Moon 2:17 AM CDT (7/3) 4:08 PM CDT (7/3)
Length of Visible Light 14h 58m
Length of Day
14h 03m
Waning Crescent, 18% of the Moon is Illuminated
Jul 3
Waning Crescent
Jul 8
New
Jul 15
First Quarter
Jul 22
Full
Jul 29
Last Quarter

Hourly Weather History & Observations

Time (CDT) Temp. Heat Index Dew Point Humidity Pressure Visibility Wind Dir Wind Speed Gust Speed Precip Events Conditions
12:53 AM 82.0 °F 87.9 °F 73.9 °F 76% 30.00 in 10.0 mi ESE 11.5 mph - N/A   Mostly Cloudy
1:22 AM 80.6 °F 85.4 °F 73.4 °F 79% 30.00 in 10.0 mi ESE 12.7 mph 24.2 mph N/A   Mostly Cloudy
1:37 AM 78.8 °F - 73.4 °F 83% 30.00 in 8.0 mi ESE 13.8 mph 24.2 mph 0.01 in Rain Light Rain
1:53 AM 77.0 °F - 71.1 °F 82% 29.99 in 10.0 mi ESE 10.4 mph - 0.01 in   Overcast
2:53 AM 78.1 °F - 73.9 °F 87% 29.97 in 10.0 mi ESE 8.1 mph - N/A   Clear
3:53 AM 80.1 °F 84.5 °F 73.9 °F 81% 29.96 in 10.0 mi SE 9.2 mph - N/A   Partly Cloudy
4:53 AM 79.0 °F - 69.1 °F 72% 29.98 in 10.0 mi South 3.5 mph - N/A   Mostly Cloudy
5:42 AM 78.8 °F - 73.4 °F 83% 29.99 in 10.0 mi ESE 3.5 mph - 0.00 in Rain , Thunderstorm Light Rain
5:53 AM 77.0 °F - 73.9 °F 90% 30.00 in 3.0 mi Calm Calm - 0.08 in Rain , Thunderstorm Heavy Rain
6:00 AM 77.0 °F - 73.4 °F 89% 30.00 in 1.8 mi Calm Calm - 0.07 in Rain , Thunderstorm Heavy Rain
6:12 AM 75.2 °F - 73.4 °F 94% 30.00 in 2.0 mi NW 3.5 mph - 0.17 in Rain , Thunderstorm Heavy Thunderstorms and Rain
6:21 AM 75.2 °F - 73.4 °F 94% 30.00 in 7.0 mi NNW 4.6 mph - 0.18 in Rain , Thunderstorm Light Rain
6:37 AM 77.0 °F - 73.4 °F 89% 30.01 in 7.0 mi Calm Calm - 0.19 in Rain Light Rain
6:53 AM 77.0 °F - 73.9 °F 90% 30.01 in 7.0 mi NNW 5.8 mph - 0.21 in Rain Light Rain
7:00 AM 75.2 °F - 73.4 °F 94% 30.00 in 10.0 mi NE 5.8 mph - 0.00 in Rain Light Rain
7:35 AM 75.2 °F - 73.4 °F 94% 30.01 in 10.0 mi ENE 5.8 mph - 0.00 in   Mostly Cloudy
7:53 AM 75.0 °F - 71.1 °F 87% 30.01 in 10.0 mi ENE 9.2 mph - 0.00 in   Mostly Cloudy
8:53 AM 75.9 °F - 72.0 °F 87% 30.02 in 10.0 mi ENE 8.1 mph - 0.00 in Rain Light Rain
9:19 AM 75.2 °F - 71.6 °F 89% 30.02 in 10.0 mi ENE 8.1 mph - 0.01 in Rain , Thunderstorm Light Rain
9:31 AM 75.2 °F - 71.6 °F 89% 30.02 in 10.0 mi ENE 8.1 mph - 0.01 in Rain , Thunderstorm Light Rain
9:53 AM 75.0 °F - 72.0 °F 90% 30.06 in 8.0 mi East 8.1 mph - 0.03 in Rain , Thunderstorm Light Rain
9:58 AM 75.2 °F - 71.6 °F 89% 30.06 in 2.5 mi SE 3.5 mph - 0.09 in Rain Rain
10:03 AM 75.2 °F - 71.6 °F 89% 30.06 in 0.8 mi East 6.9 mph - 0.29 in Rain Heavy Rain
10:13 AM 75.2 °F - 71.6 °F 89% 30.04 in 0.8 mi East 9.2 mph - 0.57 in Rain , Thunderstorm Heavy Rain
10:22 AM 75.2 °F - 71.6 °F 89% 30.04 in 2.0 mi ENE 6.9 mph - 0.61 in Rain Heavy Rain
10:25 AM 75.2 °F - 71.6 °F 89% 30.04 in 3.0 mi ENE 5.8 mph - 0.61 in Rain Rain
10:34 AM 75.2 °F - 71.6 °F 89% 30.05 in 2.5 mi East 10.4 mph - 0.66 in Rain Heavy Rain
10:44 AM 73.4 °F - 71.6 °F 94% 30.05 in 4.0 mi ENE 6.9 mph - 0.69 in Rain Rain
10:53 AM 75.0 °F - 72.0 °F 90% 30.05 in 5.0 mi East 6.9 mph - 0.72 in Rain Rain
11:53 AM 73.9 °F - 72.0 °F 93% 30.05 in 4.0 mi East 9.2 mph - 0.09 in Rain Rain
12:10 PM 73.4 °F - 71.6 °F 94% 30.04 in 6.0 mi East 6.9 mph - 0.03 in Rain Rain
12:17 PM 73.4 °F - 71.6 °F 94% 30.04 in 7.0 mi East 8.1 mph - 0.04 in Rain Rain
12:53 PM 75.0 °F - 72.0 °F 90% 30.04 in 7.0 mi East 9.2 mph - 0.12 in Rain Rain
1:53 PM 73.9 °F - 71.1 °F 91% 30.04 in 5.0 mi East 5.8 mph - 0.07 in Rain Heavy Rain
2:53 PM 73.9 °F - 71.1 °F 91% 30.04 in 4.0 mi ESE 4.6 mph - 0.23 in Rain Heavy Rain
3:53 PM 73.9 °F - 72.0 °F 93% 29.99 in 5.0 mi East 11.5 mph - 0.25 in Rain Heavy Rain
4:53 PM 75.0 °F - 72.0 °F 90% 29.97 in 9.0 mi ESE 15.0 mph 20.7 mph 0.02 in Rain Light Rain
5:12 PM 75.2 °F - 71.6 °F 89% 29.97 in 10.0 mi ESE 16.1 mph 25.3 mph 0.00 in Rain Light Rain
5:53 PM 75.0 °F - 71.1 °F 87% 29.96 in 9.0 mi ESE 18.4 mph 27.6 mph 0.01 in Rain Light Rain
6:53 PM 75.0 °F - 71.1 °F 87% 29.98 in 10.0 mi East 8.1 mph - 0.00 in   Clear
7:53 PM 73.9 °F - 71.1 °F 91% 30.01 in 10.0 mi East 9.2 mph - 0.00 in Rain Light Rain
8:53 PM 73.9 °F - 71.1 °F 91% 30.00 in 10.0 mi East 8.1 mph - 0.00 in   Overcast
9:53 PM 75.0 °F - 72.0 °F 90% 30.01 in 10.0 mi East 6.9 mph - N/A   Mostly Cloudy
10:53 PM 75.0 °F - 72.0 °F 90% 30.01 in 10.0 mi East 8.1 mph - 0.00 in Rain Light Rain
11:09 PM 75.2 °F - 71.6 °F 89% 30.00 in 9.0 mi East 8.1 mph - 0.04 in Rain , Thunderstorm Light Rain
11:27 PM 75.2 °F - 71.6 °F 89% 30.01 in 1.8 mi SE 8.1 mph - 0.28 in Rain , Thunderstorm Heavy Rain
11:35 PM 75.2 °F - 73.4 °F 94% 30.01 in 1.8 mi ESE 9.2 mph - 0.41 in Rain Heavy Rain
11:42 PM 75.2 °F - 73.4 °F 94% 30.02 in 2.5 mi East 10.4 mph - 0.48 in Rain Heavy Rain
11:47 PM 75.2 °F - 73.4 °F 94% 30.01 in 1.8 mi ESE 11.5 mph - 0.61 in Rain , Thunderstorm Heavy Thunderstorms and Rain
11:53 PM 75.0 °F - 72.0 °F 90% 30.01 in 2.0 mi ESE 12.7 mph 18.4 mph 0.64 in Rain , Thunderstorm Heavy Thunderstorms and Rain
11:59 PM 75.2 °F - 73.4 °F 94% 30.01 in 4.0 mi ESE 16.1 mph 21.9 mph 0.02 in Rain , Thunderstorm Light Thunderstorms and Rain